Little Rock AFB, AR

8:25 AM CST on January 20, 2018 (GMT -0600)
Little Rock Air Force Base

Weather History for KLRF - September, 2013

Change the Weather History Date:

Friday, September 13, 2013

  Actual Average Record
Temperature  
Mean Temperature 74 °F -  
Max Temperature 84 °F 86 °F 102 °F (1980)
Min Temperature 63 °F 63 °F 48 °F (1968)
Cooling Degree Days 8    
Growing Degree Days 24 (Base 50)    
Moisture  
Dew Point 60 °F    
Average Humidity 62    
Maximum Humidity 95    
Minimum Humidity 35    
Precipitation  
Precipitation 0.00 in - - ()
Sea Level Pressure  
Sea Level Pressure 30.01 in    
Wind  
Wind Speed 7 mph (NE)    
Max Wind Speed 15 mph    
Max Gust Speed 21 mph    
Visibility 10 miles    
Events Rain    
Averages and records for this station are not official NWS values.
T = Trace of Precipitation, MM = Missing Value Source: NWS Daily Summary

Daily Weather History Graph

Daily Weather History Graph

Search for Another Location

Airport or City:

Trip Planner

Search our weather history database for the weather conditions in past years. The results will help you decide how hot, cold, wet, or windy it might be!

Date:

Astronomy

Sep. 13, 2013 Rise Set
Actual Time 6:50 AM CDT 7:17 PM CDT
Civil Twilight 6:24 AM CDT 7:43 PM CDT
Nautical Twilight 5:55 AM CDT 8:13 PM CDT
Astronomical Twilight 5:24 AM CDT 8:43 PM CDT
Moon 2:58 PM CDT (9/13) 12:30 AM CDT (9/13)
Length of Visible Light 13h 18m
Length of Day
12h 27m
First Quarter, 61% of the Moon is Illuminated
Sep 13
First Quarter
Sep 19
Full
Sep 26
Last Quarter
Oct 4
New
Oct 11
First Quarter

Hourly Weather History & Observations

Time (CDT) Temp. Heat Index Dew Point Humidity Pressure Visibility Wind Dir Wind Speed Gust Speed Precip Events Conditions
12:58 AM 73.4 °F - 69.1 °F 86% 29.99 in 10.0 mi Calm Calm - N/A   Clear
1:58 AM 72.0 °F - 69.3 °F 91% 29.99 in 10.0 mi WSW 4.6 mph - N/A   Clear
2:58 AM 71.4 °F - 69.6 °F 94% 29.98 in 10.0 mi West 2.3 mph - N/A   Clear
3:58 AM 71.6 °F - 70.0 °F 95% 29.98 in 10.0 mi Calm Calm - N/A   Clear
4:58 AM 72.5 °F - 68.9 °F 88% 29.98 in 10.0 mi NNE 5.8 mph - N/A   Scattered Clouds
5:58 AM 73.4 °F - 67.5 °F 82% 30.00 in 10.0 mi NE 12.7 mph - N/A   Mostly Cloudy
6:49 AM 73.4 °F - 62.6 °F 69% 30.02 in 10.0 mi NNE 10.4 mph - N/A Rain Light Rain
6:58 AM 72.1 °F - 62.2 °F 71% 30.02 in 10.0 mi NNE 9.2 mph - 0.00 in Rain Light Rain
7:02 AM 71.6 °F - 60.8 °F 69% 30.02 in 10.0 mi NE 12.7 mph - N/A   Mostly Cloudy
7:16 AM 71.6 °F - 59.0 °F 64% 30.03 in 10.0 mi NNE 10.4 mph - N/A Rain Light Rain
7:30 AM 71.6 °F - 59.0 °F 64% 30.03 in 10.0 mi NNE 10.4 mph - N/A   Overcast
7:58 AM 71.4 °F - 57.9 °F 62% 30.03 in 10.0 mi NNE 8.1 mph - 0.00 in   Overcast
8:58 AM 72.0 °F - 57.2 °F 60% 30.04 in 10.0 mi NNE 9.2 mph - N/A   Mostly Cloudy
9:58 AM 73.6 °F - 56.1 °F 54% 30.06 in 10.0 mi NNE 10.4 mph - N/A   Overcast
10:58 AM 78.1 °F - 56.5 °F 47% 30.06 in 10.0 mi ENE 12.7 mph - N/A   Clear
11:58 AM 80.4 °F 80.5 °F 55.9 °F 43% 30.04 in 10.0 mi ENE 11.5 mph - N/A   Clear
12:58 PM 82.9 °F - 52.9 °F 35% 30.03 in 10.0 mi NE 10.4 mph - N/A   Clear
1:58 PM 84.0 °F 83.0 °F 55.6 °F 38% 30.01 in 10.0 mi East 12.7 mph 19.6 mph N/A   Clear
2:58 PM 83.5 °F 82.5 °F 55.4 °F 38% 29.98 in 10.0 mi ENE 10.4 mph - N/A   Clear
3:43 PM 84.2 °F 83.5 °F 57.2 °F 40% 29.97 in 10.0 mi ENE 11.5 mph - N/A   Clear
3:58 PM 84.6 °F 83.4 °F 55.9 °F 37% 29.97 in 10.0 mi East 15.0 mph 20.7 mph N/A   Clear
4:58 PM 83.3 °F 82.3 °F 55.2 °F 38% 29.96 in 10.0 mi East 15.0 mph - N/A   Clear
5:58 PM 81.5 °F 81.1 °F 55.9 °F 41% 29.96 in 10.0 mi East 13.8 mph - N/A   Clear
6:58 PM 77.4 °F - 56.7 °F 49% 29.98 in 10.0 mi ENE 12.7 mph - N/A   Clear
7:58 PM 73.4 °F - 55.0 °F 52% 29.99 in 10.0 mi East 9.2 mph - N/A   Clear
8:58 PM 68.7 °F - 56.1 °F 64% 30.03 in 10.0 mi ENE 5.8 mph - N/A   Clear
9:58 PM 66.7 °F - 56.5 °F 70% 30.04 in 10.0 mi NE 2.3 mph - N/A   Clear
10:58 PM 63.7 °F - 56.5 °F 77% 30.04 in 10.0 mi Calm Calm - N/A   Clear
11:58 PM 63.0 °F - 55.6 °F 77% 30.04 in 10.0 mi Calm Calm - N/A   Clear